Location: CCZU
(31.6840°N, 119.9550°E)
Time: 12:11:28
(UTC+08:00)

Hubble Space Telescope - Pass Details

Date: 04 October 2022
Orbit: 530 x 534 km, 28.5° (Epoch: 28 November)

Event Time Altitude Azimuth Distance (km) Brightness Sun altitude
Rises 18:24:06 0° 268° (W) 2,654 6.7 -9.8°
Reaches altitude 10° 18:26:33 10° 258° (WSW) 1,763 4.8 -10.3°
Maximum altitude 18:30:06 29° 197° (SSW) 978 2.2 -11.1°
Drops below altitude 10° 18:33:39 10° 136° (SE) 1,759 3.0 -11.8°
Enters shadow 18:33:46 - 135° (SE) 1,797 3.0 -11.9°
